SES-11 (ECHOSTAR 105)

Last updated on Fri Dec 19 2025 00:02:52 GMT+0000 (Coordinated Universal Time)

1 42967U 17063A 25352.60448159 -.00000064 00000+0 00000+0 0 9998 2 42967 0.0140 0.0427 0002837 260.7408 299.3613 1.00271803 29911
UTC large
Height (km)
Speed (km/s)
/
Latitude / Longitude
Inclination (degrees)
Orbital Period (minutes)
Azimuth
Elevation
Range (km)
Doppler Factor

Next 0 passes for location: London (51.5072 / 0.1276)

Sorry there are no passes over London.